Погода в Кадниково

Россия / Свердловская область     56°35′01″N   60°54′36″E
темп.,
°C
ветер,
м/с
пор.,
м/с
влажн.,
%
обл.,
%
осадки,
мм/ч
давл.,
гПа
погр.,
м
16 мая, пн
пн1623:00+9зюз22835 0.1 100314
02:00+8зюз228894 0.0 100330
05:00+7з1189100 0.0 100210
08:00+12з0067100 0.0 1001244
11:00+17вюв114655 0.0 9991287
14:00+19вюв113693 0.0 9972442
17:00+15ююв3661100 0.1 997305
20:00+13юз4771100 0.8 996227
17 мая, вт
вт1723:00+9зюз41184100 0.9 997353
02:00+9зюз2787100 0.4 997367
05:00+8юз2696100 5.1 998292
08:00+9зюз3893100 3.0 998438
11:00+9з3892100 6.6 1000594
14:00+13зсз3668100 0.9 10001347
17:00+16зюз265396 1.3 10011596
20:00+12ю247638 0.2 100179
18 мая, ср
ср1823:00+9юз23845 0.2 100261
02:00+7юз3993100 0.0 1003229
05:00+7юз2896100 0.0 1003274
08:00+10юз3775100 0.0 1004570
11:00+15ююз464815 0.0 10031837
14:00+15ю584597 0.1 10012103
17:00+9юз388862 1.7 1001647
20:00+10юз377918 0.3 1001322
19 мая, чт
чт1923:00+6юз22895 0.3 100119
02:00+5юз289647 0.0 1000230
05:00+5юз399637 0.0 1000383
08:00+8зюз478196 0.0 1001691
11:00+9зюз5778100 0.4 10021072
14:00+6зюз588699 0.1 1004803
17:00+8зюз4777100 0.3 1004969
20:00+5з4993100 0.1 1006675
20 мая, пт
пт2023:00+3з38925 0.1 1007284
02:00+2юз26955 0.0 1007115
05:00+2юз2694100 0.0 1007139
08:00+7зюз247441 0.0 1007677
11:00+9юз235588 0.1 10061302
14:00+12ю344692 0.0 10051822
17:00+12зюз124591 0.1 10041572
20:00+10юв116026 0.0 100417